www.pogodaiklimat.ru

Погода и климат >> Архив погоды >> Германия >> Offenbach Wetterpark


ПОГОДА в Offenbach Wetterpark

  • Прогноз погоды в Offenbach Wetterpark
  • Монитор погоды в Offenbach Wetterpark
  • Климат города

АРХИВ ПОГОДЫ в Offenbach Wetterpark

Время (UTC), дата Ветер
(напр.,м/с)
 
Видим.   Явления Облачность Т
(С)
Тd
(С)
f
(%)
Тe
(С)
Тes
(С)
Комфортность P
(гПа)
Po
(гПа)
Тmin
(С)
Tmax
(С)
R
(мм)
R24
(мм)
S
(см)
20 10.10 ЮЗ 3-6
{7}
30 км 10/10 960 м
[]
+13.9 +12.1 89 +13 +13 1019.2 1004.8
19 10.10 ЮЗ 2-3
{6}
30 км 10/10 870 м
[]
+13.9 +12.2 89 +13 +13 1019.3 1004.9
21 10.10 ЮЗ 2 24 км 10/10 1350 м
[]
+13.3 +12.1 92 +13 +13 1019.4 1005.0
22 10.10 ЮЗ 3-6
{7}
23 км 10/10 1500 м
[]
+13.2 +11.8 91 +12 +12 1019.6 1005.1
23 10.10 ЮЗ 2-4
{7}
21 км 10/10 1500 м
[]
+13.0 +11.8 92 +12 +12 1019.4 1004.9
00 11.10 Ю 2-4
{7}
24 км 10/10 1500 м
[]
+13.5 +11.8 89 +13 +13 1019.1 1004.7
02 11.10 ЮЗ 2-4
{6}
26 км 10/10 1020 м
[]
+13.4 +12.0 91 +13 +13 1019.0 1004.6
01 11.10 Ю 2-5
{5}
29 км 10/10 1500 м
[]
+13.6 +12.0 90 +13 +13 1019.0 1004.6
03 11.10 ЮЗ 2 24 км 10/10 600 м
[]
+13.2 +12.1 93 +12 +12 1019.0 1004.6
04 11.10 ЮЗ 2-5
{5}
26 км 10/10 270 м
[]
+13.4 +12.2 92 +13 +13 1019.0 1004.6
05 11.10 ЮЗ 2-5
{5}
30 км 10/10 930 м
[]
+13.4 +11.8 90 +13 +13 1019.0 1004.6
06 11.10 ЮЗ 2 28 км 10/10 600 м
[]
+13.5 +11.3 87 +13 +13 1019.1 1004.7 +12.7 +14.1
08 11.10 ЮЗ 4-8
{8}
30 км 10/10 660 м
[]
+14.0 +10.7 80 +13 +13 1019.8 1005.4
07 11.10 ЮЗ 3-6
{6}
30 км 9/9 870 м
[]
+13.4 +11.0 85 +12 +12 1019.5 1005.1
09 11.10 ЮЗ 3-6
{8}
40 км ?/? +15.5 +11.0 75 +15 +15 1019.7 1005.4
10 11.10 ЮЗ 3-7
{8}
50 км 10/10 570 м
[]
+14.9 +11.1 78 +14 +14 1019.6 1005.2
11 11.10 ЮЗ 3-6
{8}
45 км 10/10 540 м
[]
+15.2 +11.3 78 +15 +15 1019.6 1005.2
12 11.10 З 4-9
{9}
70 км 10/10 630 м
[]
+15.8 +10.0 68 +15 +15 1019.1 1004.8
14 11.10 З 3-6
{7}
70 км 10/10 1110 м
[]
+15.9 +9.9 68 +15 +15 1018.7 1004.4
13 11.10 ЮЗ 3-6
{10}
70 км 10/10 1050 м
[]
+15.9 +9.9 68 +15 +15 1019.0 1004.7
15 11.10 ЮЗ 3-6
{10}
70 км 10/10 960 м
[]
+15.5 +10.1 70 +15 +15 1018.3 1004.0
16 11.10 Ю 2-3
{6}
65 км 10/10 960 м
[]
+15.3 +10.5 73 +15 +15 1018.2 1003.9
17 11.10 Ю 3-5
{5}
70 км 10/10 1140 м
[]
+15.3 +10.4 73 +15 +15 1018.1 1003.8
18 11.10 Ю 2 70 км 10/10 1260 м
[]
+14.8 +10.7 76 +15 +15 1018.0 1003.6 +13.0 +16.4
20 11.10 Ю 3-5
{5}
45 км 9/9 1260 м
[]
+13.8 +10.9 83 +13 +13 1018.0 1003.6
19 11.10 ЮВ 2-4
{4}
55 км 10/10 1260 м
[]
+14.2 +10.9 81 +14 +14 1018.1 1003.7
21 11.10 ЮВ 1-1
{5}
40 км 10/10 1300 м
[]
+12.4 +11.3 93 +12 +12 1018.6 1004.1
22 11.10 ЮВ 1-2
{2}
45 км 10/10 1320 м
[]
+12.9 +11.1 89 +13 +13 1018.6 1004.1
23 11.10 ЮВ 2-3
{3}
35 км 9/9 1140 м
[]
+12.5 +10.6 88 +12 +12 1018.1 1003.6
00 12.10 -1
{5}
н/о 6/0
[]
+10.9 +10.2 95 1018.1 1003.5
02 12.10 ЮВ 2-2
{2}
18 км 9/9 1470 м
[]
+10.4 +10.2 99 +9 +9 1017.8 1003.2
01 12.10 ЮВ 1-1
{2}
12 км 1/0
[]
+10.2 +10.0 99 +10 +10 1017.9 1003.3
03 12.10 Ю 1 16 км 9/9 1230 м
[]
+11.2 +10.7 97 +11 +11 1017.4 1002.9
04 12.10 ЮЗ 2-5
{5}
17 км в посл. час морось 9/0 2000 м
[]
+11.8 +11.2 96 +11 +11 1017.7 1003.2
05 12.10 ЮЗ 2-5
{5}
23 км в посл. час дождь {морось} 10/0 2000 м
[]
+12.3 +11.0 92 +11 +11 1017.9 1003.4
06 12.10 ЮЗ 2 23 км {дождь, морось} 10/0 2000 м
[]
+12.6 +11.0 90 +12 +12 1018.8 1004.3 +9.7 +14.9 0.0
08 12.10 З 1-3
{4}
30 км 8/8 1500 м
[]
+14.6 +11.8 83 +15 +15 1020.5 1006.1
07 12.10 ЮЗ 1-3
{5}
21 км 9/9 1500 м
[]
+12.9 +11.3 90 +13 +13 1019.7 1005.2
09 12.10 З 5 28 км 9/9 1500 м
[]
+16.6 +11.8 73 +16 +16 1020.9 1006.6
10 12.10 З 6-11
{11}
18 км 5/5 1170 м
[]
+17.8 +10.0 60 +17 +18 1021.9 1007.6
11 12.10 З 4-8
{12}
35 км 9/9 1230 м
[]
+18.9 +9.4 54 +19 +20 1022.3 1008.1
12 12.10 З 5 30 км 10/10 1440 м
[]
+18.5 +8.7 53 +19 +19 1022.3 1008.1
14 12.10 З 4-9
{10}
45 км 9/9 1500 м
[]
+18.5 +9.9 57 +19 +19 1022.5 1008.3
13 12.10 З 5-9
{12}
40 км 9/9 1440 м
[]
+18.3 +9.1 55 +18 +18 1022.7 1008.4
15 12.10 З 5 30 км 9/9 1500 м
[]
+18.2 +9.3 56 +18 +18 1022.7 1008.4
16 12.10 З 4-7
{9}
35 км 10/10 1500 м
[]
+17.4 +9.2 59 +17 +17 1023.4 1009.1
17 12.10 ЮЗ 2-3
{5}
35 км 10/10 1500 м
[]
+15.0 +9.6 70 +15 +15 1023.9 1009.5
18 12.10 ЮЗ 1 35 км 10/10 1410 м
[]
+13.1 +10.1 82 +13 +13 1024.6 1010.1 +12.2 +19.4
20 12.10 ЮЗ 2-3
{4}
28 км 10/10 1300 м
[]
+13.1 +10.9 86 +12 +12 1025.1 1010.6
19 12.10 ЮЗ 2-3
{3}
35 км 10/10 1440 м
[]
+13.6 +10.6 82 +13 +13 1024.9 1010.4
21 12.10 З 1 24 км 10/0
[]
+12.1 +10.9 92 +12 +12 1025.8 1011.2
22 12.10 Ю 1-1
{2}
13 км 10/0
[]
+11.2 +10.7 97 +11 +11 1026.2 1011.5
23 12.10 ЮЗ 1-3
{3}
18 км 10/10 1470 м
[]
+11.1 +10.5 96 +11 +11 1026.1 1011.4
00 13.10 ЮЗ 1 16 км 10/10 1200 м
[]
+11.4 +11.0 97 +11 +11 1026.2 1011.6
02 13.10 штиль 0-1
{2}
10 км 10/10 930 м
[]
+11.1 +10.9 99 +10 +10 1026.2 1011.5
01 13.10 З 1-2
{2}
12 км 10/10 1140 м
[]
+11.0 +10.8 99 +11 +11 1026.2 1011.5
03 13.10 штиль 0 7000 м дымка 9/9 600 м
[]
+10.9 +10.8 99 +10 +10 1026.2 1011.5
04 13.10 З 1-3
{3}
10 км 10/0
[]
+10.9 +10.8 99 +10 +10 1026.3 1011.6
06 13.10 З 2 9000 м 9/9 100 м
[]
+11.3 +11.2 99 +10 +10 1026.3 1011.7 +10.5 +14.1
07 13.10 ЮЗ 2-4
{5}
9000 м 9/9 150 м
[]
+12.2 +11.7 97 +11 +11 1026.9 1012.3
08 13.10 ЮЗ 2-3
{5}
11 км 9/9 240 м
[]
+13.1 +12.3 95 +12 +12 1027.1 1012.5
09 13.10 ЮЗ 3 18 км 10/10 240 м
[]
+14.2 +12.1 87 +13 +13 1027.5 1013.0
10 13.10 ЮЗ 2-4
{6}
20 км в посл. час морось 10/10 300 м
[]
+15.1 +12.6 85 +15 +15 1027.8 1013.3
11 13.10 ЮЗ 3-6
{6}
27 км 10/10 420 м
[]
+16.4 +12.7 79 +16 +16 1027.4 1013.0
12 13.10 ЮЗ 3-5
{6}
27 км {морось, дымка} 9/9 500 м
[]
+17.0 +13.2 78 +17 +17 1027.2 1012.8 0.0
13 13.10 З 4-6
{6}
30 км 10/10 630 м
[]
+18.3 +13.7 75 +19 +19 1026.7 1012.4
14 13.10 ЮЗ 1-3
{6}
40 км 10/10 630 м
[]
+18.1 +14.0 77 +19 +19 1026.6 1012.3
15 13.10 Ю 2-3
{6}
35 км 10/10 1300 м
[]
+17.9 +13.8 77 +18 +18 1026.4 1012.1
16 13.10 ЮЗ 2-3
{3}
35 км 10/10 1230 м
[]
+17.7 +14.2 80 +18 +18 1026.3 1012.0
17 13.10 З 2-2
{4}
30 км 10/10 1140 м
[]
+17.0 +14.1 83 +17 +17 1026.8 1012.4
18 13.10 Ю 1 28 км 10/10 1230 м
[]
+16.1 +14.3 89 +17 +17 1026.8 1012.4 +11.2 +18.8
19 13.10 Ю 1-2
{2}
27 км 10/10 1320 м
[]
+16.0 +14.3 90 +17 +17 1026.9 1012.5
20 13.10 штиль 0-1
{2}
22 км 10/10 1320 м
[]
+15.4 +14.2 93 +15 +15 1027.2 1012.8
21 13.10 ЮЗ 1-2
{2}
19 км 9/9 1350 м
[]
+14.7 +13.7 94 +15 +15 1027.3 1012.8
22 13.10 ЮЗ 1-2
{3}
21 км 9/9 1320 м
[]
+14.2 +13.3 94 +14 +14 1027.4 1012.9
23 13.10 З 1-2
{2}
29 км 10/10 1260 м
[]
+14.5 +13.2 92 +15 +15 1027.6 1013.1
00 14.10 З 1-2
{3}
30 км 10/10 1140 м
[]
+14.8 +13.1 90 +15 +15 1027.8 1013.3
01 14.10 ЮЗ 1-3
{3}
30 км 10/10 1170 м
[]
+14.9 +12.9 88 +15 +15 1027.9 1013.4
02 14.10 ЮЗ 1-2
{2}
30 км 10/10 1110 м
[]
+14.7 +12.8 88 +15 +15 1027.8 1013.3
03 14.10 Ю 1-2
{3}
26 км 10/10 1140 м
[]
+14.0 +12.5 91 +14 +14 1027.7 1013.2
04 14.10 Ю 1-1
{3}
19 км 9/9 1140 м
[]
+12.6 +12.1 97 +12 +12 1027.7 1013.1
05 14.10 ЮВ 1-1
{1}
8000 м 3/3 1170 м
[]
+11.5 +11.3 99 +11 +11 1028.2 1013.5
06 14.10 Ю 1 10 км 1/0
[]
+10.7 +10.7 100 +10 +10 1028.3 1013.6 +10.6 +16.5
07 14.10 Ю 1-2
{2}
14 км ясно +12.0 +11.3 95 +12 +12 1028.7 1014.1
08 14.10 Ю 1-2
{2}
25 км ясно +14.1 +11.5 84 +14 +16 1029.0 1014.5
09 14.10 ЮЗ 2-3
{3}
30 км ясно +16.7 +12.3 75 +17 +20 1028.9 1014.5
10 14.10 З 2-3
{4}
35 км ясно +18.0 +12.4 70 +19 +23 1028.8 1014.5
11 14.10 ЮЗ 2-4
{4}
35 км ясно +19.3 +12.4 64 +21 +26 комфорт 1028.5 1014.2
12 14.10 ЮЗ 2-5
{5}
50 км ясно +20.3 +11.7 58 +23 +28 комфорт 1027.9 1013.7
13 14.10 З 3-5
{5}
40 км ясно +20.5 +11.8 57 +23 +26 комфорт 1027.4 1013.2
14 14.10 Ю 2-3
{4}
60 км ясно +21.1 +12.3 57 +23 +26 комфорт 1027.0 1012.8
15 14.10 З 2-2
{5}
60 км ясно +21.4 +12.6 57 +24 +25 комфорт 1026.7 1012.6
16 14.10 штиль 0-1
{2}
55 км ясно +19.7 +14.5 72 +21 +22 комфорт 1026.7 1012.5
17 14.10 ЮВ 1-1
{1}
45 км ясно +16.4 +13.8 85 +17 +17 1027.0 1012.6
18 14.10 ЮВ 1 35 км ясно +14.7 +13.6 93 +15 +15 1027.2 1012.7 +10.8 +22.1
19 14.10 штиль 0-1
{1}
11 км ясно +13.4 +13.0 97 +13 +13 1027.7 1013.2
20 14.10 штиль 0-1
{2}
12 км ясно +12.6 +12.5 99 +12 +12 1028.0 1013.4
21 14.10 С 2-2
{2}
8000 м ясно +12.0 +11.9 99 +11 +11 1027.8 1013.2
22 14.10 С 1-2
{2}
5000 м дымка ясно +11.7 +11.7 100 +11 +11 1027.8 1013.2
23 14.10 ЮВ 1-2
{2}
5000 м дымка ясно +11.0 +11.0 100 +11 +11 1027.8 1013.1
00 15.10 С 1-2
{3}
10 км ясно +11.4 +11.4 100 +11 +11 1027.5 1012.8
01 15.10 СВ 1-2
{2}
4000 м дымка ясно +10.4 +10.4 100 +10 +10 1027.3 1012.6
02 15.10 СВ 1-1
{1}
8000 м в посл. час туман {дымка} ясно +9.6 +9.6 100 +9 +9 1026.8 1012.1
03 15.10 штиль 0-1
{2}
9000 м {туман, дымка} ясно +9.1 +9.1 100 +8 +8 1026.8 1012.0
04 15.10 СВ 1-1
{1}
5000 м в посл. час туман {дымка} ясно +8.6 +8.6 100 +8 +8 1026.9 1012.1
05 15.10 штиль 0-1
{1}
8000 м 1/1 <50 м
[]
+8.2 +8.2 100 +7 +7 1027.2 1012.4
06 15.10 В 1 800 м туман {дымка} 10/10 <50 м
[]
+8.0 +8.0 100 +7 +7 1027.3 1012.5 +7.6 +14.7
07 15.10 Ю 1-1
{1}
5000 м в посл. час туман {дымка} ясно +8.8 +8.8 100 +8 +8 1027.6 1012.8
08 15.10 штиль 0-1
{2}
17 км 9/9 90 м
[]
+10.9 +9.5 91 +10 +10 1027.8 1013.1
09 15.10 З 1-2
{2}
22 км {туман, дымка} ясно +13.2 +10.7 85 +13 +17 1027.7 1013.1
10 15.10 З 1-1
{2}
19 км ясно +15.2 +11.6 79 +16 +21 1027.4 1012.9
11 15.10 З 2-3
{3}
9000 м ясно +16.1 +12.7 80 +16 +21 1026.8 1012.4
12 15.10 З 2-3
{4}
12 км {туман, дымка} ясно +17.7 +13.3 75 +18 +23 1026.1 1011.8
13 15.10 З 3-4
{4}
15 км ясно +17.9 +13.2 74 +18 +22 1025.5 1011.2
14 15.10 З 2-3
{3}
23 км ясно +18.8 +13.1 69 +20 +23 1024.8 1010.6
15 15.10 З 2-2
{4}
20 км ясно +19.4 +13.3 68 +21 +23 комфорт 1024.4 1010.2
16 15.10 З 1-2
{2}
16 км ясно +18.2 +14.1 77 +20 +20 1024.2 1009.9
17 15.10 З 1-1
{2}
9000 м ясно +15.2 +13.8 91 +16 +16 1024.3 1009.9
18 15.10 Ю 1 5000 м дымка ясно +13.6 +13.2 97 +14 +14 1024.7 1010.2 +7.9 +19.8
19 15.10 ЮВ 1-1
{1}
1800 м в посл. час туман {дымка} ясно +12.6 +12.6 100 +12 +12 1024.7 1010.2
20 15.10 штиль 0-1
{1}
2600 м в посл. час туман {дымка} ясно +11.2 +11.2 100 +10 +10 1025.0 1010.4
21 15.10 ЮВ 1-1
{1}
3200 м дымка {туман} ясно +10.4 +10.3 99 +10 +10 1025.4 1010.7
22 15.10 В 1-1
{1}
3700 м дымка ясно +10.0 +9.9 99 +9 +9 1025.3 1010.6
23 15.10 ЮВ 1-1
{1}
2700 м дымка 1/1 30 м
[]
+9.1 +9.1 100 +8 +8 1025.5 1010.7
00 16.10 Ю 1-1
{2}
2400 м дымка {туман} 9/9 <50 м
[]
+8.7 +8.7 100 +8 +8 1025.7 1010.9
01 16.10 З 1-1
{2}
100 м туман {дымка} 10/10 <50 м
[]
+9.4 +9.4 100 +9 +9 1025.8 1011.1
02 16.10 штиль 0-1
{2}
100 м туман 10/10 <50 м
[]
+9.6 +9.6 100 +9 +9 1025.6 1010.9
03 16.10 штиль 0-1
{2}
100 м туман {дымка} 10/10 <50 м
[]
+9.6 +9.6 100 +9 +9 1025.5 1010.8
04 16.10 ЮЗ 1-2
{2}
100 м туман 10/10 <50 м
[]
+9.6 +9.6 100 +9 +9 1025.6 1010.9
05 16.10 Ю 1-1
{2}
600 м туман 10/10 <50 м
[]
+9.5 +9.5 100 +9 +9 1025.6 1010.9
06 16.10 штиль 0 200 м туман {дымка} 10/10 <50 м
[]
+8.9 +8.9 100 +8 +8 1025.7 1010.9 +8.6 +13.6
07 16.10 ЮЗ 1-1
{1}
100 м туман 10/10 <50 м
[]
+8.9 +8.9 100 +8 +8 1026.4 1011.6
08 16.10 Ю 1-1
{2}
2400 м в посл. час туман {дымка} 10/10 <50 м
[]
+10.0 +10.0 100 +9 +9 1026.3 1011.6
09 16.10 ЮЗ 1 11 км {туман, дымка} 6/6 60 м
[]
+11.9 +10.9 94 +12 +13 1026.4 1011.8
10 16.10 З 1-3
{3}
14 км ясно +14.9 +11.9 82 +15 +20 1026.4 1011.9
11 16.10 З 2-3
{3}
20 км ясно +17.7 +12.3 71 +18 +23 1025.9 1011.6
12 16.10 Ю 2-3
{4}
27 км {туман, дымка} ясно +20.1 +12.9 63 +23 +28 комфорт 1025.3 1011.1
13 16.10 ЮЗ 2-4
{4}
30 км ясно +21.2 +13.3 61 +24 +28 комфорт 1024.7 1010.6
14 16.10 ЮЗ 1-2
{4}
29 км ясно +22.1 +12.9 56 +25 +28 комфорт 1024.3 1010.2
15 16.10 ЮЗ 1-1
{4}
30 км ясно +22.1 +14.4 62 +25 +27 комфорт 1024.1 1010.0
16 16.10 штиль 0
{1}
23 км 1/0
[]
+18.5 +15.0 80 +19 +19 1023.9 1009.7
17 16.10 штиль 0-1
{1}
18 км 1/0
[]
+15.9 +14.5 91 +16 +16 1023.9 1009.5
18 16.10 ЮВ 1 11 км 3/0
[]
+14.5 +14.0 97 +15 +15 1024.0 1009.6 +8.8 +23.1
19 16.10 В 1-1
{1}
5000 м дымка ?/? +13.6 +13.5 99 +14 +14 1024.2 1009.7
20 16.10 Ю 1-1
{1}
3300 м дымка 4/0
[]
+12.3 +12.3 100 +12 +12 1024.1 1009.5
21 16.10 С 1-1
{1}
3200 м дымка 4/0 2000 м
[]
+11.7 +11.6 99 +11 +11 1024.3 1009.7
22 16.10 Ю 1-1
{1}
2200 м в посл. час туман {дымка} 3/0 2000 м
[]
+10.6 +10.6 100 +10 +10 1024.4 1009.7
23 16.10 В 1-1
{1}
2900 м в посл. час туман {дымка} ясно +10.5 +10.4 99 +10 +10 1024.2 1009.5
00 17.10 штиль 0-1
{1}
1500 м дымка {туман} ясно +9.2 +9.2 100 +8 +8 1024.2 1009.5
01 17.10 штиль 0-1
{1}
9000 м в посл. час туман {дымка} 1/0 2000 м
[]
+9.1 +9.1 100 +8 +8 1024.2 1009.5
02 17.10 ЮВ 1-1
{2}
5000 м дымка ?/? +8.6 +8.6 100 +8 +8 1024.1 1009.3
03 17.10 Ю 1-1
{2}
5000 м дымка {туман} 3/0 2000 м
[]
+7.9 +7.9 100 +7 +7 1024.1 1009.3
04 17.10 ЮВ 1-2
{2}
5000 м дымка ?/? +7.7 +7.7 100 +7 +7 1023.8 1009.0
05 17.10 ЮВ 1-1
{1}
2500 м дымка ?/? +7.3 +7.3 100 +6 +6 1023.9 1009.1
06 17.10 штиль 0 5000 м дымка {туман} ?/? +7.2 +7.2 100 +6 +6 1024.1 1009.3 +6.9 +14.5
07 17.10 штиль 0
{4}
5000 м дымка ?/? +8.3 +7.9 97 +7 +7 1024.5 1009.7
08 17.10 ЮВ 1-2
{3}
8000 м ?/? +11.4 +10.1 92 +11 +11 1024.2 1009.6
09 17.10 СЗ 1-1
{4}
11 км ?/? +14.5 +11.2 81 +15 +15 1024.1 1009.6
10 17.10 Ю 1-2
{2}
12 км ?/? +17.1 +12.1 72 +18 +18 1023.7 1009.4
11 17.10 З 2-3
{3}
25 км 6/0
[]
+19.1 +11.1 60 +21 +24 комфорт 1022.8 1008.6
12 17.10 ЮВ 2-3
{4}
21 км 1/0
[]
+19.9 +12.2 61 +22 +27 комфорт 1022.0 1007.8
13 17.10 СВ 1-2
{3}
28 км 6/0
[]
+20.6 +12.3 59 +24 +27 комфорт 1021.0 1006.9
14 17.10 В 1-1
{2}
30 км 5/0
[]
+21.4 +12.5 57 +24 +26 комфорт 1020.2 1006.1
15 17.10 штиль 0-1
{3}
26 км 9/0
[]
+20.8 +15.2 70 +24 +24 комфорт 1019.7 1005.6
16 17.10 штиль 0-2
{2}
24 км 10/0
[]
+18.0 +14.5 80 +18 +18 1019.3 1005.1
17 17.10 Ю 1-1
{1}
16 км 10/0
[]
+15.4 +14.4 94 +16 +16 1019.3 1005.0

 

Местоположение метеостанции Offenbach Wetterpark (Германия): широта 50.08 долгота 8.78 высота над уровнем моря 119 м.

В архиве по умолчанию представлена погода в Offenbach Wetterpark за последнюю неделю. Архивные данные за месяц целиком и за предыдущие месяцы, начиная с января 2011 года, Вы можете получить, выбрав интересующий диапазон дат из раскрывающегося списка и нажав кнопку "Ввод!".

Внимание! Время в таблицах - всемирное. Для получения местного времени необходимо прибавить поправку, которая в Offenbach Wetterpark равна 1 ч.

Смотрите также архив погоды в соседних городах и на ближайших метеорологических станциях:

Погода в Frankfurt (Германия) (13 км)
Погода в Kleiner Feldberg (Германия) (28 км)
Погода в Michelstadt (Германия) (46 км)
Погода в Neuhuetten / Spessart (Германия) (46 км)
Погода в Giessen (Германия) (56 км)
Погода в Hoherodskopf-Vogelsberg (Германия) (58 км)
Погода в Geisenheim (Германия) (60 км)
Погода в Mannheim (Германия) (64 км)
Погода в Neu-Ulrichstein (Германия) (76 км)
Погода в Waibstadt (Германия) (87 км)

Пояснения к столбцам:

Ветер - указаны скорость ветра в м/с - средняя за 10 мин, порывы в срок и между сроками (в фигурных скобках) и направление, откуда дует ветер: С - северный, СВ - северо-восточный, В - восточный, ЮВ - юго-восточный, Ю - южный, ЮЗ - юго-западный, З - западный, СЗ - северо-западный.
Видимость - горизонтальная дальность видимости в метрах или километрах. При видимости от 1 до 10 км при отсутствии осадков обычно наблюдается дымка, при ухудшении видимости до 1 км и менее - туман. В сухую погоду видимость может ухудшаться дымом, пылью или мглою.
Явления - указаны атмосферные явления, наблюдавшиеся в срок или в последний час перед сроком; фигурными скобками обозначены явления, наблюдавшиеся между сроками (за 1-3 часа до срока); квадратными скобками обозначены град или гололедные отложения с указанием их диаметра в мм.
Облачность - указаны через наклонную черту общая и нижняя облачность в баллах и высота нижней границы облаков в метрах; квадратными скобками обозначены формы облаков: Ci - перистые, Cs - перисто-слоистые, Cc - перисто-кучевые, Ac - высококучевые, As - высокослоистые, Sc - слоисто-кучевые, Ns - слоисто-дождевые, Cu - кучевые, Cb - кучево-дождевые. Подробнее классификацию облаков см. в Атласе облаков (PDF).
T - Температура воздуха - температура, измеренная на высоте 2 м над землей.
Td - Температура точки росы - температура, при понижении до которой содержащийся в воздухе водяной пар достигнет насыщения.
f - Относительная влажность воздуха - влажноcть воздуха, измеренная на высоте 2 м над землей.
Te - Эффективная температура - температура, которую ощущает одетый по сезону человек в тени. Характеристика душности погоды. При расчете учитывается влияние влажности воздуха и скорости ветра на теплоощущения человека.
Tes - Эффективная температура на солнце - температура, которую ощущает человек, с поправкой на солнечный нагрев. Характеристика знойности погоды. Зависит от высоты солнца над горизонтом, облачности и скорости ветра. Ночью, в пасмурную погоду, а также при ветре 12 м/с и более поправка равна нулю.
P - Атмосферное давление - приведенное к уровню моря атмосферное давление.
Po - Атмосферное давление - измеренное на уровне метеостанции атмосферное давление.
Tmin - Минимальная температура - минимум температуры воздуха на высоте 2 м над землей.
Tmax - Максимальная температура - максимум температуры воздуха на высоте 2 м над землей.
R - Количество осадков - Количество выпавших осадков за период времени, мм. При наведении курсора мыши на число - период времени, за который выпало указанное количество осадков.
R24 - Количество осадков - Количество выпавших осадков за 24 часа, мм.
S - Снежный покров - Высота снежного покрова, см. При наведении курсора мыши на число - состояние снежного покрова и степень покрытия местности в баллах.